RYR738U LIRN-LICJ

Flight info

Callsign RYR738U
Flight time 0h 37m
Altitude 29000
Route DELER DCT AMANO DCT ROSAS
Aircraft B738/M-SDE3FGILRWY/SB1

Departure

Time 2026-04-27 22:38
Airport Naples International Airport (LIRN)

Arrival

Time 2026-04-27 23:15
Airport Falcone–Borsellino Airport (LICJ)
Time Latitude Longitude Altitude Speed Heading
2026-04-27 22:21 40.87894 14.28165 292 ft 0 kts 164°
2026-04-27 22:27 40.87901 14.28163 296 ft 4 kts 160°
2026-04-27 22:27 40.87919 14.28156 295 ft 4 kts 124°
2026-04-27 22:27 40.87918 14.28133 296 ft 4 kts 52°
2026-04-27 22:28 40.87901 14.28106 298 ft 4 kts 50°
2026-04-27 22:28 40.87896 14.28097 296 ft 1 kts 52°
2026-04-27 22:30 40.87898 14.28100 297 ft 1 kts 44°
2026-04-27 22:30 40.87907 14.28098 297 ft 1 kts 345°
2026-04-27 22:31 40.87918 14.28094 296 ft 2 kts 345°
2026-04-27 22:31 40.87934 14.28096 295 ft 3 kts 13°
2026-04-27 22:31 40.87957 14.28115 294 ft 5 kts 45°
2026-04-27 22:31 40.87962 14.28170 292 ft 7 kts 99°
2026-04-27 22:32 40.87955 14.28239 292 ft 8 kts 103°
2026-04-27 22:32 40.87946 14.28320 288 ft 10 kts 97°
2026-04-27 22:32 40.87938 14.28419 287 ft 12 kts 92°
2026-04-27 22:32 40.87986 14.28511 285 ft 13 kts 42°
2026-04-27 22:33 40.88046 14.28612 282 ft 15 kts 52°
2026-04-27 22:33 40.88113 14.28722 280 ft 16 kts 53°
2026-04-27 22:33 40.88184 14.28845 277 ft 17 kts 52°
2026-04-27 22:33 40.88261 14.28978 273 ft 19 kts 53°
2026-04-27 22:34 40.88342 14.29120 270 ft 20 kts 53°
2026-04-27 22:34 40.88427 14.29268 266 ft 21 kts 53°
2026-04-27 22:34 40.88517 14.29423 262 ft 22 kts 52°
2026-04-27 22:34 40.88610 14.29587 257 ft 23 kts 53°
2026-04-27 22:35 40.88707 14.29755 252 ft 23 kts 50°
2026-04-27 22:35 40.88804 14.29918 247 ft 22 kts 52°
2026-04-27 22:35 40.88896 14.30078 241 ft 22 kts 53°
2026-04-27 22:35 40.88985 14.30236 237 ft 21 kts 51°
2026-04-27 22:36 40.89072 14.30382 230 ft 21 kts 52°
2026-04-27 22:36 40.89189 14.30427 226 ft 17 kts 333°
2026-04-27 22:36 40.89209 14.30365 226 ft 6 kts 255°
2026-04-27 22:36 40.89195 14.30321 228 ft 5 kts 230°
2026-04-27 22:37 40.89182 14.30299 230 ft 0 kts 236°
2026-04-27 22:37 40.89161 14.30257 231 ft 25 kts 236°
2026-04-27 22:37 40.88889 14.29694 250 ft 118 kts 238°
2026-04-27 22:37 40.88339 14.28503 529 ft 172 kts 235°
2026-04-27 22:38 40.87550 14.27152 1346 ft 202 kts 217°
2026-04-27 22:38 40.86179 14.26522 2153 ft 218 kts 181°
2026-04-27 22:38 40.84673 14.26743 3241 ft 214 kts 174°
2026-04-27 22:38 40.83217 14.26966 4320 ft 204 kts 174°
2026-04-27 22:39 40.81841 14.27170 5312 ft 197 kts 174°
2026-04-27 22:39 40.80481 14.27364 6171 ft 197 kts 174°
2026-04-27 22:39 40.79111 14.27553 6940 ft 199 kts 175°
2026-04-27 22:39 40.77719 14.27739 7611 ft 203 kts 175°
2026-04-27 22:40 40.76304 14.27924 8265 ft 206 kts 175°
2026-04-27 22:40 40.74865 14.28110 8937 ft 209 kts 175°
2026-04-27 22:40 40.73403 14.28296 9603 ft 212 kts 175°
2026-04-27 22:40 40.71922 14.28484 10256 ft 215 kts 176°
2026-04-27 22:41 40.70425 14.28762 10786 ft 224 kts 167°
2026-04-27 22:41 40.68839 14.29353 10988 ft 249 kts 164°
2026-04-27 22:41 40.67110 14.30056 11271 ft 268 kts 163°
2026-04-27 22:41 40.65296 14.30780 11823 ft 275 kts 164°
2026-04-27 22:42 40.63446 14.31500 12455 ft 281 kts 164°
2026-04-27 22:42 40.61483 14.32253 12699 ft 308 kts 164°
2026-04-27 22:42 40.59330 14.33038 12924 ft 334 kts 169°
2026-04-27 22:42 40.56972 14.32952 13391 ft 348 kts 195°
2026-04-27 22:43 40.54646 14.31977 14161 ft 353 kts 200°
2026-04-27 22:43 40.52324 14.30861 14885 ft 358 kts 201°
2026-04-27 22:43 40.49984 14.29709 15637 ft 362 kts 202°
2026-04-27 22:43 40.47614 14.28550 16387 ft 366 kts 202°
2026-04-27 22:44 40.45208 14.27389 17105 ft 370 kts 202°
2026-04-27 22:44 40.42775 14.26230 17846 ft 374 kts 202°
2026-04-27 22:44 40.40308 14.25066 18550 ft 379 kts 202°
2026-04-27 22:44 40.37818 14.23897 19182 ft 383 kts 202°
2026-04-27 22:45 40.35300 14.22719 19837 ft 386 kts 202°
2026-04-27 22:45 40.32762 14.21534 20481 ft 389 kts 201°
2026-04-27 22:45 40.30200 14.20339 21142 ft 392 kts 201°
2026-04-27 22:45 40.27624 14.19139 21752 ft 395 kts 201°
2026-04-27 22:46 40.25020 14.17927 22352 ft 399 kts 201°
2026-04-27 22:46 40.22392 14.16704 22993 ft 402 kts 201°
2026-04-27 22:46 40.19754 14.15475 23642 ft 403 kts 201°
2026-04-27 22:46 40.17110 14.14245 24324 ft 401 kts 201°
2026-04-27 22:47 40.14498 14.13026 25055 ft 397 kts 202°
2026-04-27 22:47 40.11901 14.11812 25728 ft 396 kts 202°
2026-04-27 22:47 40.09309 14.10601 26339 ft 395 kts 202°
2026-04-27 22:47 40.06725 14.09396 26970 ft 394 kts 202°
2026-04-27 22:48 40.04121 14.08183 27631 ft 392 kts 202°
2026-04-27 22:48 40.01552 14.06989 28314 ft 390 kts 202°
2026-04-27 22:48 39.99000 14.05804 28936 ft 389 kts 202°
2026-04-27 22:48 39.96431 14.04611 29101 ft 394 kts 202°
2026-04-27 22:49 39.93847 14.03412 29116 ft 393 kts 201°
2026-04-27 22:49 39.88742 14.01052 29114 ft 385 kts 202°
2026-04-27 22:49 39.86224 13.99888 28843 ft 383 kts 202°
2026-04-27 22:50 39.83739 13.98742 28588 ft 376 kts 202°
2026-04-27 22:50 39.82107 13.97989 28337 ft 375 kts 202°
2026-04-27 22:50 39.79662 13.96861 27995 ft 371 kts 202°
2026-04-27 22:50 39.77236 13.95743 27626 ft 369 kts 202°
2026-04-27 22:51 39.74804 13.94623 27262 ft 366 kts 202°
2026-04-27 22:51 39.72405 13.93519 26910 ft 363 kts 202°
2026-04-27 22:51 39.70029 13.92426 26558 ft 361 kts 202°
2026-04-27 22:51 39.67667 13.91340 26211 ft 359 kts 202°
2026-04-27 22:52 39.65319 13.90262 25873 ft 357 kts 202°
2026-04-27 22:52 39.62986 13.89192 25522 ft 355 kts 201°
2026-04-27 22:52 39.60664 13.88127 25181 ft 353 kts 201°
2026-04-27 22:52 39.58355 13.87069 24844 ft 351 kts 201°
2026-04-27 22:53 39.56062 13.86020 24502 ft 350 kts 201°
2026-04-27 22:53 39.53763 13.84968 24161 ft 349 kts 201°
2026-04-27 22:53 39.51480 13.83925 23823 ft 348 kts 201°
2026-04-27 22:53 39.49196 13.82883 23438 ft 348 kts 201°
2026-04-27 22:54 39.46896 13.81834 23070 ft 357 kts 201°
2026-04-27 22:54 39.44466 13.80722 22725 ft 384 kts 201°
2026-04-27 22:54 39.41909 13.79556 22312 ft 393 kts 200°
2026-04-27 22:54 39.39332 13.78384 21846 ft 392 kts 200°
2026-04-27 22:55 39.36766 13.77215 21441 ft 389 kts 200°
2026-04-27 22:55 39.34132 13.76014 21065 ft 408 kts 200°
2026-04-27 22:55 39.31390 13.74766 20652 ft 425 kts 200°
2026-04-27 22:55 39.28623 13.73511 20222 ft 429 kts 200°
2026-04-27 22:56 39.25804 13.72235 19786 ft 429 kts 200°
2026-04-27 22:56 39.22954 13.70946 19353 ft 428 kts 200°
2026-04-27 22:56 39.20134 13.69671 18936 ft 433 kts 200°
2026-04-27 22:56 39.17282 13.68382 18502 ft 438 kts 200°
2026-04-27 22:57 39.14388 13.67076 18004 ft 439 kts 200°
2026-04-27 22:57 39.11513 13.65779 17539 ft 438 kts 200°
2026-04-27 22:57 39.08640 13.64484 17091 ft 437 kts 200°
2026-04-27 22:57 39.05777 13.63193 16651 ft 435 kts 200°
2026-04-27 22:58 39.02932 13.61912 16212 ft 432 kts 200°
2026-04-27 22:58 39.00107 13.60640 15780 ft 429 kts 200°
2026-04-27 22:58 38.97337 13.59395 15529 ft 411 kts 200°
2026-04-27 22:58 38.94726 13.58220 15383 ft 387 kts 200°
2026-04-27 22:59 38.92258 13.57108 15240 ft 364 kts 200°
2026-04-27 22:59 38.89938 13.56066 15105 ft 344 kts 200°
2026-04-27 22:59 38.87737 13.55077 14995 ft 326 kts 200°
2026-04-27 22:59 38.85650 13.54140 14873 ft 310 kts 200°
2026-04-27 23:00 38.81646 13.52354 14053 ft 303 kts 200°
2026-04-27 23:00 38.79654 13.51469 13520 ft 302 kts 200°
2026-04-27 23:00 38.77699 13.50601 13024 ft 299 kts 201°
2026-04-27 23:01 38.75716 13.49721 12543 ft 296 kts 201°
2026-04-27 23:01 38.73803 13.48874 12075 ft 294 kts 201°
2026-04-27 23:01 38.71854 13.48011 11594 ft 291 kts 200°
2026-04-27 23:01 38.69946 13.47166 11142 ft 292 kts 200°
2026-04-27 23:02 38.68025 13.46317 10773 ft 293 kts 201°
2026-04-27 23:02 38.66091 13.45465 10461 ft 293 kts 200°
2026-04-27 23:02 38.64174 13.44626 10243 ft 288 kts 200°
2026-04-27 23:02 38.62297 13.43799 10036 ft 284 kts 200°
2026-04-27 23:03 38.60432 13.42972 9722 ft 283 kts 200°
2026-04-27 23:03 38.58578 13.42145 9425 ft 281 kts 200°
2026-04-27 23:03 38.56739 13.41325 9207 ft 277 kts 200°
2026-04-27 23:03 38.54943 13.40544 9092 ft 269 kts 197°
2026-04-27 23:04 38.53121 13.40315 8951 ft 259 kts 174°
2026-04-27 23:04 38.51449 13.40910 8837 ft 249 kts 155°
2026-04-27 23:04 38.50030 13.42154 8759 ft 242 kts 138°
2026-04-27 23:04 38.48921 13.43779 8665 ft 245 kts 122°
2026-04-27 23:05 38.48159 13.45746 8464 ft 250 kts 115°
2026-04-27 23:05 38.47426 13.47762 8227 ft 251 kts 117°
2026-04-27 23:05 38.46611 13.49733 7984 ft 249 kts 120°
2026-04-27 23:05 38.45638 13.51518 7703 ft 244 kts 137°
2026-04-27 23:06 38.44270 13.52717 7461 ft 236 kts 159°
2026-04-27 23:06 38.42690 13.53187 7238 ft 233 kts 180°
2026-04-27 23:06 38.41101 13.52913 7014 ft 231 kts 199°
2026-04-27 23:06 38.39654 13.52049 6749 ft 232 kts 215°
2026-04-27 23:07 38.38330 13.50827 6420 ft 235 kts 218°
2026-04-27 23:07 38.37041 13.49564 6167 ft 234 kts 218°
2026-04-27 23:07 38.35751 13.48299 5913 ft 234 kts 218°
2026-04-27 23:07 38.34460 13.47044 5653 ft 233 kts 218°
2026-04-27 23:08 38.33168 13.45797 5402 ft 233 kts 218°
2026-04-27 23:08 38.31872 13.44554 5147 ft 233 kts 218°
2026-04-27 23:08 38.30585 13.43322 4899 ft 233 kts 218°
2026-04-27 23:08 38.29293 13.42087 4671 ft 232 kts 217°
2026-04-27 23:09 38.28100 13.40726 4397 ft 231 kts 237°
2026-04-27 23:09 38.27463 13.38865 4196 ft 228 kts 249°
2026-04-27 23:09 38.26875 13.36994 3947 ft 228 kts 247°
2026-04-27 23:09 38.26268 13.35127 3716 ft 227 kts 247°
2026-04-27 23:10 38.25674 13.33308 3493 ft 217 kts 247°
2026-04-27 23:10 38.25104 13.31581 3271 ft 207 kts 247°
2026-04-27 23:10 38.24553 13.29917 3048 ft 201 kts 246°
2026-04-27 23:10 38.24020 13.28314 2788 ft 193 kts 246°
2026-04-27 23:11 38.23516 13.26803 2532 ft 179 kts 246°
2026-04-27 23:11 38.23047 13.25397 2285 ft 166 kts 246°
2026-04-27 23:11 38.22617 13.24107 2103 ft 150 kts 245°
2026-04-27 23:11 38.22206 13.22879 1902 ft 150 kts 245°
2026-04-27 23:12 38.21807 13.21686 1687 ft 144 kts 246°
2026-04-27 23:12 38.21423 13.20540 1496 ft 139 kts 246°
2026-04-27 23:12 38.21037 13.19394 1342 ft 142 kts 245°
2026-04-27 23:12 38.20642 13.18248 1155 ft 142 kts 250°
2026-04-27 23:13 38.20267 13.17094 959 ft 138 kts 250°
2026-04-27 23:13 38.19904 13.15987 783 ft 133 kts 249°
2026-04-27 23:13 38.19533 13.14915 644 ft 133 kts 247°
2026-04-27 23:13 38.19157 13.13840 469 ft 133 kts 250°
2026-04-27 23:14 38.18802 13.12729 239 ft 134 kts 246°
2026-04-27 23:14 38.18445 13.11677 99 ft 129 kts 248°
2026-04-27 23:14 38.18126 13.10717 66 ft 100 kts 248°
2026-04-27 23:14 38.17907 13.10063 63 ft 70 kts 247°
2026-04-27 23:15 38.17738 13.09557 64 ft 56 kts 245°
2026-04-27 23:15 38.17609 13.09168 66 ft 17 kts 262°
2026-04-27 23:15 38.17694 13.09164 70 ft 14 kts 26°
2026-04-27 23:15 38.17783 13.09218 71 ft 14 kts 23°
2026-04-27 23:16 38.17850 13.09298 72 ft 14 kts 61°
2026-04-27 23:16 38.17902 13.09440 62 ft 21 kts 66°
2026-04-27 23:16 38.17968 13.09637 62 ft 27 kts 66°
2026-04-27 23:16 38.18045 13.09863 65 ft 23 kts 67°
2026-04-27 23:17 38.18098 13.10022 60 ft 19 kts 67°
2026-04-27 23:17 38.18146 13.10168 63 ft 17 kts 67°
2026-04-27 23:17 38.18193 13.10305 59 ft 17 kts 66°
2026-04-27 23:17 38.18274 13.10359 61 ft 9 kts 348°
2026-04-27 23:18 38.18311 13.10419 58 ft 9 kts 68°
2026-04-27 23:18 38.18350 13.10481 62 ft 10 kts 28°
2026-04-27 23:18 38.18432 13.10524 63 ft 14 kts 34°
2026-04-27 23:18 38.18477 13.10625 61 ft 11 kts 48°
2026-04-27 23:19 38.18528 13.10619 59 ft 4 kts 337°
2026-04-27 23:19 38.18549 13.10608 61 ft 3 kts 337°
2026-04-27 23:19 38.18550 13.10608 62 ft 0 kts 337°
2026-04-27 23:19 38.18554 13.10606 62 ft 0 kts 337°